Location: Boiro
(42.6475°N, 8.8834°W)
Time: 10:47:03
(UTC+01:00)

Altair - Pass Details

Date: 07 December 2021
Orbit: 1501 x 1683 km, 47.2° (Epoch: 17 January)

Event Time Altitude Azimuth Distance (km) Brightness Sun altitude
Rises 21:13:23 0° 293° (WNW) 4,699 10.9 -34.4°
Reaches altitude 10° 21:16:27 10° 293° (WNW) 3,697 10.2 -34.9°
Enters shadow 21:25:36 86° 244° (WSW) 1,511 7.3 -36.6°
